TimeCEST,TemperatureF,Dew PointF,Humidity,Sea Level PressureIn,VisibilityMPH,Wind Direction,Wind SpeedMPH,Gust SpeedMPH,PrecipitationIn,Events,Conditions,WindDirDegrees,DateUTC
12:00 AM,35.6,35.6,100,29.56,-9999.0,ENE,12.7,-,N/A,Rain,Rain,70,2012-10-26 22:00:00
12:30 AM,35.6,35.6,100,29.53,2.2,East,17.3,-,N/A,Rain,Rain,80,2012-10-26 22:30:00
1:00 AM,35.6,35.6,100,29.50,2.2,East,15.0,-,N/A,Rain,Rain,80,2012-10-26 23:00:00
1:30 AM,35.6,33.8,93,29.50,-9999.0,ENE,16.1,-,N/A,Rain,Rain,70,2012-10-26 23:30:00
2:00 AM,35,34,96,29.54,2,East,15.7,,,Rain,Light Rain,80,2012-10-27 00:00:00
2:00 AM,35.6,33.8,93,29.47,2.2,East,13.8,-,N/A,Rain,Rain,80,2012-10-27 00:00:00
2:30 AM,35.6,33.8,93,29.44,2.2,East,15.0,-,N/A,Rain,Rain,80,2012-10-27 00:30:00
3:00 AM,35.6,33.8,93,29.44,2.2,ENE,12.7,-,N/A,Rain,Rain,70,2012-10-27 01:00:00
3:30 AM,35.6,33.8,93,29.42,1.6,NE,11.5,-,N/A,Rain,Rain,40,2012-10-27 01:30:00
4:00 AM,35.6,33.8,93,29.42,1.7,NNE,10.4,-,N/A,Rain,Rain,30,2012-10-27 02:00:00
4:30 AM,35.6,33.8,93,29.39,2.2,NNE,10.4,-,N/A,Rain,Rain,30,2012-10-27 02:30:00
5:00 AM,35.6,33.8,93,29.39,2.5,NNE,10.4,-,N/A,Rain,Light Rain,30,2012-10-27 03:00:00
5:30 AM,33.8,33.8,100,29.39,2.5,NNE,10.4,-,N/A,Rain,Light Rain,30,2012-10-27 03:30:00
5:49 AM,33.8,33.8,100,29.36,1.2,NNE,9.2,-,N/A,Rain,Rain,20,2012-10-27 03:49:00
6:00 AM,33.8,33.8,100,29.36,1.1,NNE,10.4,-,N/A,Rain,Light Rain,20,2012-10-27 04:00:00
6:12 AM,33.8,32.0,93,29.36,0.7,North,8.1,-,N/A,Rain,Light Rain,10,2012-10-27 04:12:00
6:21 AM,33.8,32.0,93,29.36,0.7,NNE,8.1,-,N/A,Rain,Light Rain,20,2012-10-27 04:21:00
6:30 AM,33.8,32.0,93,29.36,0.7,North,9.2,-,N/A,Rain,Light Rain,10,2012-10-27 04:30:00
6:40 AM,33.8,32.0,93,29.33,0.6,North,8.1,-,N/A,Rain,Light Rain,10,2012-10-27 04:40:00
6:46 AM,32.0,32.0,100,29.33,0.5,North,8.1,-,N/A,Rain-Snow,Light Rain,10,2012-10-27 04:46:00
7:00 AM,32.0,32.0,100,29.33,0.4,NNE,10.4,-,N/A,Rain,Light Rain,20,2012-10-27 05:00:00
7:11 AM,32.0,32.0,100,29.33,0.6,NNE,9.2,-,N/A,Fog-Rain,Light Rain,20,2012-10-27 05:11:00
7:23 AM,32.0,32.0,100,29.33,0.6,NNE,8.1,-,N/A,Rain,Light Rain,20,2012-10-27 05:23:00
7:30 AM,32.0,32.0,100,29.33,0.7,NNE,10.4,-,N/A,Rain,Light Rain,20,2012-10-27 05:30:00
8:00 AM,32,32,98,29.39,0,North,8.9,,,Snow,Light Snow,10,2012-10-27 06:00:00
8:00 AM,32.0,32.0,100,29.33,0.4,North,8.1,-,N/A,Fog-Rain-Snow,Light Rain,360,2012-10-27 06:00:00
8:30 AM,32.0,32.0,100,29.33,0.4,North,9.2,-,N/A,Fog-Rain,Light Rain,360,2012-10-27 06:30:00
8:38 AM,32.0,32.0,100,29.33,0.3,North,6.9,-,N/A,Rain,Light Rain,350,2012-10-27 06:38:00
9:00 AM,32.0,32.0,100,29.33,0.5,North,11.5,-,N/A,Rain-Snow,Light Snow,360,2012-10-27 07:00:00
9:17 AM,32.0,32.0,100,29.33,0.6,North,8.1,-,N/A,Fog-Snow,Light Snow,350,2012-10-27 07:17:00
9:30 AM,32.0,32.0,100,29.33,0.6,North,9.2,-,N/A,Fog-Snow,Light Snow,360,2012-10-27 07:30:00
9:37 AM,32.0,32.0,100,29.33,0.7,North,6.9,-,N/A,Snow,Light Snow,350,2012-10-27 07:37:00
9:44 AM,32.0,32.0,100,29.33,1.0,North,6.9,-,N/A,Snow,Light Snow,360,2012-10-27 07:44:00
10:00 AM,32.0,32.0,100,29.33,1.0,North,10.4,-,N/A,Fog-Snow,Light Snow,360,2012-10-27 08:00:00
10:18 AM,32.0,32.0,100,29.33,1.0,North,8.1,-,N/A,Snow,Light Snow,360,2012-10-27 08:18:00
10:30 AM,32.0,32.0,100,29.33,0.9,North,9.2,-,N/A,Snow,Snow,360,2012-10-27 08:30:00
10:51 AM,32.0,32.0,100,29.33,0.7,North,8.1,-,N/A,Snow,Snow,360,2012-10-27 08:51:00
11:00 AM,32.0,32.0,100,29.33,0.7,North,10.4,-,N/A,Snow,Snow,10,2012-10-27 09:00:00
11:22 AM,32.0,32.0,100,29.33,0.9,North,9.2,-,N/A,Snow,Light Snow,360,2012-10-27 09:22:00
11:30 AM,32.0,32.0,100,29.33,0.9,North,10.4,-,N/A,Snow,Light Snow,360,2012-10-27 09:30:00
11:37 AM,32.0,32.0,100,29.33,0.7,North,10.4,-,N/A,Snow,Snow,350,2012-10-27 09:37:00
12:00 PM,32.0,32.0,100,29.33,0.6,North,11.5,-,N/A,Snow,Snow,360,2012-10-27 10:00:00
12:08 PM,32.0,30.2,93,29.33,0.6,North,10.4,-,N/A,Snow,Snow,360,2012-10-27 10:08:00
12:30 PM,32.0,30.2,93,29.36,0.6,North,11.5,-,N/A,Snow,Snow,360,2012-10-27 10:30:00
1:00 PM,32.0,30.2,93,29.36,0.4,North,13.8,-,N/A,Snow,Snow,360,2012-10-27 11:00:00
1:30 PM,32.0,30.2,93,29.36,0.5,North,15.0,-,N/A,Snow,Snow,360,2012-10-27 11:30:00
1:42 PM,32.0,30.2,93,29.36,0.6,North,13.8,-,N/A,Snow,Light Snow,350,2012-10-27 11:42:00
1:47 PM,32.0,30.2,93,29.36,0.7,North,12.7,-,N/A,Snow,Light Snow,350,2012-10-27 11:47:00
2:00 PM,31,31,97,29.43,1,North,17.9,,,Snow,Snow,0,2012-10-27 12:00:00
2:00 PM,32.0,30.2,93,29.36,0.7,North,15.0,-,N/A,Snow,Snow,360,2012-10-27 12:00:00
2:13 PM,32.0,30.2,93,29.36,0.7,North,15.0,-,N/A,Snow,Snow,350,2012-10-27 12:13:00
2:30 PM,30.2,30.2,100,29.36,0.8,North,17.3,-,N/A,Snow,Light Snow,360,2012-10-27 12:30:00
2:44 PM,30.2,30.2,100,29.39,0.5,North,18.4,-,N/A,Snow,Snow,350,2012-10-27 12:44:00
3:00 PM,30.2,30.2,100,29.39,0.6,North,16.1,-,N/A,Snow,Snow,350,2012-10-27 13:00:00
3:12 PM,30.2,30.2,100,29.39,0.7,North,16.1,-,N/A,Snow,Light Snow,350,2012-10-27 13:12:00
3:30 PM,30.2,30.2,100,29.39,0.6,North,17.3,-,N/A,Snow,Snow,350,2012-10-27 13:30:00
3:46 PM,30.2,30.2,100,29.42,0.7,North,18.4,-,N/A,Snow,Snow,350,2012-10-27 13:46:00
3:47 PM,30.2,30.2,100,29.42,0.7,North,18.4,-,N/A,Snow,Snow,350,2012-10-27 13:47:00
4:01 PM,30.2,30.2,100,29.42,0.7,North,19.6,-,N/A,Snow,Snow,360,2012-10-27 14:01:00
4:11 PM,30.2,30.2,100,29.42,0.8,North,18.4,-,N/A,Snow,Light Snow,350,2012-10-27 14:11:00
4:30 PM,30.2,28.4,93,29.42,1.2,North,17.3,-,N/A,Snow,Light Snow,360,2012-10-27 14:30:00
4:34 PM,30.2,28.4,93,29.44,2.2,North,16.1,-,N/A,Snow,Light Snow,350,2012-10-27 14:34:00
4:42 PM,30.2,28.4,93,29.44,3.7,North,18.4,-,N/A,Snow,Light Snow,350,2012-10-27 14:42:00
5:00 PM,30.2,28.4,93,29.44,5.0,North,18.4,-,N/A,Snow,Light Snow,350,2012-10-27 15:00:00
5:30 PM,30.2,28.4,93,29.47,5.6,North,17.3,-,N/A,Snow,Light Snow,350,2012-10-27 15:30:00
6:00 PM,30.2,28.4,93,29.50,5.6,North,17.3,-,N/A,,Overcast,350,2012-10-27 16:00:00
6:07 PM,30.2,28.4,93,29.50,5.6,North,19.6,-,N/A,Snow,Light Snow,360,2012-10-27 16:07:00
6:24 PM,30.2,28.4,93,29.50,5.6,North,18.4,-,N/A,Snow,Light Snow,360,2012-10-27 16:24:00
6:30 PM,30.2,28.4,93,29.50,5.6,North,21.9,-,N/A,,Overcast,360,2012-10-27 16:30:00
7:00 PM,30.2,28.4,93,29.53,5.6,North,24.2,-,N/A,,Overcast,10,2012-10-27 17:00:00
7:23 PM,30.2,28.4,93,29.56,5.6,North,20.7,-,N/A,Snow,Light Snow,360,2012-10-27 17:23:00
7:24 PM,30.2,28.4,93,29.56,2.8,North,20.7,-,N/A,Snow,Light Snow,360,2012-10-27 17:24:00
7:30 PM,30.2,28.4,93,29.56,3.7,North,20.7,-,N/A,Snow,Light Snow,360,2012-10-27 17:30:00
8:00 PM,30,29,92,29.65,3,North,15.7,,,Snow,Light Snow,0,2012-10-27 18:00:00
8:01 PM,30.2,28.4,93,29.59,2.8,North,15.0,-,N/A,Snow,Light Snow,350,2012-10-27 18:01:00
8:30 PM,30.2,28.4,93,29.59,3.7,North,15.0,-,N/A,Snow,Light Snow,360,2012-10-27 18:30:00
9:00 PM,30.2,28.4,93,29.62,3.1,North,16.1,-,N/A,Snow,Light Snow,360,2012-10-27 19:00:00
9:16 PM,30.2,26.6,86,29.62,3.7,NNW,15.0,-,N/A,Snow,Light Snow,340,2012-10-27 19:16:00
9:23 PM,30.2,26.6,86,29.62,3.7,NNW,12.7,-,N/A,Snow,Light Snow,340,2012-10-27 19:23:00
9:30 PM,30.2,26.6,86,29.62,3.7,NNW,12.7,-,N/A,Snow,Light Snow,340,2012-10-27 19:30:00
10:00 PM,30.2,28.4,93,29.62,5.0,NNW,15.0,-,N/A,Snow,Light Snow,340,2012-10-27 20:00:00
10:30 PM,30.2,26.6,86,29.62,5.6,NNW,13.8,-,N/A,Snow,Light Snow,340,2012-10-27 20:30:00
10:46 PM,30.2,26.6,86,29.65,5.6,NNW,12.7,-,N/A,,Mostly Cloudy,340,2012-10-27 20:46:00
11:00 PM,30.2,26.6,86,29.65,6.2,NNW,10.4,-,N/A,,Mostly Cloudy,340,2012-10-27 21:00:00
11:30 PM,30.2,26.6,86,29.65,6.2,NNW,10.4,-,N/A,,Scattered Clouds,330,2012-10-27 21:30:00